Content
SEND FEEDBACK

Daily
Averages
Monthly
Summary
United Kingdom

LONDON, ENGLAND


Home > Europe > United Kingdom > England
Elevation: 61 meters     Latitude: 51 09N     Longitude: 000 11W

WEATHER
 
SELECT A DAY
Number of Records: 292,605;   Date Range: 7/1/96 - 7/20/14
 
SHARE

PRINT THIS DATA

[ ← Previous Day ]
WEATHER ALMANAC - 6 JULY, 2013
[ Next Day → ]
[ °F ]   °C
Weather ElementAverageHighLow
Temperature19 °C26 °C (3:50 pm)10 °C (4:50 am)
Dewpoint12.9 °C16 °C (6:50 pm)9 °C (4:50 am)
Humidity70.2 %94 % (1:20 am)44 % (3:50 pm)
Barometer1029.5 hPa1030.1 hPa (12:50 am)1028.1 hPa (2:50 pm)
Wind Speed6 km/h13 km/h (6:50 pm)
Weather ElementAverage
Visibility9.5 km
Wind DirectionENE (55.7 °)

Weather ElementTotal
Precipitation---
Heating Degree Days0.3 (Base 18.3)
Growing Degree Days8 (Base 10)
Averaged from 47 records on 6 July, 2013
WEATHER CONDITIONS BREAKOUT
WIND DIRECTION BREAKOUT
WEATHER BY HOUR - 6 JULY, 2013
[ °F ]   °C
Local TimeTemperatureDewpointHumidityBarometerVisibilityWind DirectionWind SpeedGust SpeedPrecipitationEventsConditions
12:50 AM13 °C11 °C88 %1030.1 hPaEast (90°)5.6 km/hClear
1:20 AM12 °C11 °C94 %1030.1 hPaEast (90°)5.6 km/hClear
1:50 AM13 °C11 °C88 %1030.1 hPa9 kmEast (80°)3.7 km/h
2:20 AM12 °C10 °C88 %1030.1 hPaEast (90°)7.4 km/hClear
2:50 AM12 °C11 °C94 %1030.1 hPaEast (80°)3.7 km/hClear
3:20 AM11 °C10 °C94 %1030.1 hPaEast (90°)5.6 km/hClear
3:50 AM11 °C10 °C94 %1030.1 hPaCalmClear
4:20 AM11 °C10 °C94 %1030.1 hPaCalmClear
4:50 AM10 °C9 °C94 %1030.1 hPaENE (70°)5.6 km/hClear
5:20 AM10 °C9 °C94 %1030.1 hPaEast (80°)5.6 km/hClear
5:50 AM10 °C9 °C94 %1030.1 hPa10 kmENE (70°)3.7 km/hPartly Cloudy
6:20 AM11 °C10 °C94 %1030.1 hPa10 kmEast (90°)5.6 km/hPartly Cloudy
6:50 AM12 °C11 °C94 %1030.1 hPa10 kmEast (100°)3.7 km/hPartly Cloudy
7:20 AM14 °C11 °C82 %1030.1 hPa10 kmEast (80°)7.4 km/hPartly Cloudy
7:50 AM16 °C11 °C72 %1030.1 hPa10 kmVariable5.6 km/hPartly Cloudy
8:20 AM17 °C12 °C72 %1030.1 hPa10 kmEast (80°)7.4 km/hPartly Cloudy
8:50 AM18 °C13 °C73 %1030.1 hPaVariable5.6 km/hClear
9:20 AM19 °C13 °C68 %1030.1 hPaVariable5.6 km/hClear
9:50 AM20 °C14 °C68 %1030.1 hPaVariable3.7 km/hClear
10:20 AM21 °C14 °C64 %1030.1 hPaVariable3.7 km/hClear
10:50 AM22 °C14 °C60 %1030.1 hPa10 kmVariable3.7 km/hPartly Cloudy
11:20 AM22 °C14 °C60 %1030.1 hPa10 kmVariable5.6 km/hPartly Cloudy
11:50 AM23 °C14 °C57 %1029.1 hPa10 kmNNE (30°)7.4 km/hPartly Cloudy
12:20 PM22 °C14 °C60 %1029.1 hPa10 kmVariable7.4 km/hPartly Cloudy
12:50 PM24 °C14 °C53 %1029.1 hPa10 kmENE (70°)7.4 km/hPartly Cloudy
1:20 PM24 °C13 °C50 %1029.1 hPa10 kmVariable5.6 km/hPartly Cloudy
1:50 PM25 °C14 °C50 %1029.1 hPa10 kmVariable9.3 km/hPartly Cloudy
2:20 PM25 °C14 °C50 %1029.1 hPa10 kmEast (80°)9.3 km/hPartly Cloudy
2:50 PM25 °C13 °C47 %1028.1 hPa10 kmVariable7.4 km/hPartly Cloudy
3:20 PM25 °C13 °C47 %1028.1 hPaESE (110°)11.1 km/hClear
3:50 PM26 °C13 °C44 %1028.1 hPaVariable7.4 km/hClear
4:20 PM26 °C13 °C44 %1028.1 hPaVariable9.3 km/hClear
4:50 PM26 °C14 °C47 %1028.1 hPaVariable7.4 km/hClear
5:20 PM26 °C15 °C51 %1028.1 hPaEast (80°)9.3 km/hClear
5:50 PM25 °C14 °C50 %1028.1 hPaEast (80°)9.3 km/hClear
6:20 PM24 °C14 °C53 %1028.1 hPaEast (80°)7.4 km/hClear
6:50 PM25 °C16 °C57 %1028.1 hPaSouth (190°)13 km/hClear
7:20 PM24 °C16 °C61 %1028.1 hPa10 kmSouth (190°)9.3 km/hPartly Cloudy
7:50 PM24 °C16 °C61 %1028.1 hPa10 kmSSW (210°)11.1 km/hPartly Cloudy
8:20 PM23 °C16 °C65 %1029.1 hPaSW (230°)11.1 km/hClear
8:50 PM22 °C15 °C64 %1029.1 hPaVariable5.6 km/hClear
9:20 PM21 °C15 °C68 %1029.1 hPaVariable5.6 km/hClear
9:50 PM20 °C15 °C73 %1030.1 hPaVariable3.7 km/hClear
10:20 PM19 °C15 °C78 %1030.1 hPaSouth (180°)3.7 km/hClear
10:50 PM18 °C15 °C83 %1030.1 hPa8 kmCalm
11:20 PM18 °C15 °C83 %1030.1 hPa6.9 kmCalm
11:50 PM17 °C14 °C82 %1030.1 hPa6 kmCalm
Hourly data recorded from EGKK, located 0 kilometers away from London, England







STORIES FROM OUR PARTNERS